[[{"header":{"parameterUnit":"m.s-1","parameterCategory":2,"la1":30.2991,"la2":30.254,"lo1":-89.0895,"lo2":-89.0444,"dy":0.0017,"dx":0.0017,"nx":28,"ny":28,"refTime":"2023-08-19T09:00:00:Z","depth":"0","parameterNumber":2,"parameterNumberName":"U-component_of_CURRENTS"},"data":[0,0,0,0,0,0,0,0,0,0,0,0,0,0,0,0,0,0,0,0,0,0,0,0,0,0,0,0,0,0,0,0,0,0,0,0,0,0,0,0,0,0,0,0,0,0,0,0,0,0,0,0,0,0,0,0,0,0,0.1799,0.18,0,0.1888,0.1889,0.189,0.1921,0.1921,0.1921,0.192,0.1987,0.1989,0.1991,0,0,0,0,0,0,0,0,0,0,0,0,0,0.1743,0.1743,0.1799,0.18,0.1801,0.1888,0.1889,0.189,0.1921,0.1921,0.1921,0.192,0.1987,0.1989,0.1992,0,0,0,0,0,0,0,0,0,0,0,0,0,0.1793,0.1743,0.1799,0.1827,0.1831,0.1888,0.1889,0.1891,0.1921,0.1921,0.192,0.192,0.1986,0.1989,0.1992,0.2022,0,0,0.2002,0.2003,0,0,0,0,0,0,0,0,0.179,0.1795,0.1822,0.1825,0.1829,0.1893,0.1894,0.1933,0.1922,0.1887,0.192,0.192,0.1954,0.196,0.1978,0.2025,0.2028,0.2002,0.2004,0.2005,0.2006,0,0,0,0,0,0,0,0.1786,0.1792,0.1834,0.1823,0.1828,0.1865,0.1871,0.1902,0.1922,0.189,0.1892,0.1902,0.1956,0.1975,0.198,0.2029,0.2002,0.2005,0.2006,0.2008,0.2062,0.2061,0,0,0,0,0,0,0.1771,0.1788,0.1832,0.1837,0.1808,0.1866,0.1873,0.1873,0.1922,0.1929,0.1903,0.1904,0.197,0.1976,0.1982,0.1995,0.2005,0.2008,0.201,0.2062,0.2062,0.2061,0,0,0,0,0,0,0.177,0.1774,0.1828,0.1815,0.1825,0.1867,0.1868,0.1875,0.1884,0.1932,0.1939,0.1902,0.197,0.1978,0.1987,0.1998,0.2009,0.2012,0.2063,0.2062,0.2062,0.2036,0,0,0,0,0,0,0.1767,0.1772,0.1773,0.1814,0.1825,0.1843,0.1869,0.1877,0.1891,0.1893,0.1934,0.1941,0.197,0.1982,0.199,0.2003,0.2015,0.2063,0.2063,0.2062,0.2038,0.2035,0.2033,0,0,0,0,0,0.1765,0.1761,0.1772,0.1778,0.1822,0.1843,0.1851,0.1881,0.1891,0.1888,0.1911,0.1939,0.1983,0.1984,0.1994,0.2008,0.2064,0.2063,0.2062,0.2039,0.2036,0.2033,0,0,0,0,0,0,0.1745,0.1765,0.1778,0.1783,0.1804,0.1847,0.1852,0.1873,0.1892,0.189,0.1932,0.194,0.1954,0.1977,0.1977,0.2018,0.2029,0.203,0.2008,0.2006,0.2003,0.199,0.2017,0,0,0,0,0,0.1739,0.1733,0.1765,0.1768,0.1773,0.1811,0.1825,0.1843,0.1866,0.1874,0.1901,0.193,0.1962,0.1976,0.2001,0.2024,0.2032,0.2038,0.2035,0.2033,0.2027,0.2042,0.204,0.2058,0.2058,0.2058,0,0,0.1738,0.1744,0.1746,0.1762,0.178,0.1785,0.1817,0.1826,0.1829,0.1878,0.1882,0.1919,0.1962,0.1986,0.1995,0.2005,0.203,0.2031,0.203,0.2025,0.2041,0.2039,0.2037,0.2057,0.2057,0.2057,0,0,0.1719,0.1728,0.1714,0.1738,0.1755,0.1761,0.1758,0.1789,0.1796,0.1809,0.1849,0.1884,0.1921,0.1964,0.199,0.1986,0.2012,0.1997,0.1982,0.1996,0.1995,0.1994,0.1995,0.1995,0.2,0.2,0.2,0,0.1735,0.1717,0.1716,0.1723,0.1734,0.1743,0.174,0.1751,0.1782,0.1789,0.1796,0.1874,0.1914,0.1964,0.1968,0.1983,0.1985,0.1994,0.1993,0.1993,0.1992,0.1994,0.1993,0.1999,0.1999,0.1999,0.1999,0,0.169,0.1716,0.171,0.1707,0.1699,0.171,0.1711,0.1695,0.1697,0.1734,0.1768,0.1828,0.1878,0.1905,0.1939,0.1969,0.1969,0.1985,0.2002,0.1989,0.1991,0.1991,0.1997,0.1997,0.1998,0.1998,0,0,0.1695,0.1685,0.17,0.1711,0.1704,0.1698,0.1656,0.1649,0.1643,0.1684,0.1702,0.1778,0.1828,0.186,0.1919,0.1945,0.1953,0.1962,0.1964,0.1964,0.1968,0.1932,0.1929,0.1966,0.1966,0.1966,0.1969,0,0.1691,0.1683,0.1668,0.168,0.1682,0.1665,0.161,0.16,0.1616,0.1633,0.1708,0.1758,0.1808,0.1845,0.1877,0.1942,0.1952,0.195,0.198,0.1981,0.1952,0.1928,0.19,0.1896,0.1969,0.1969,0.1969,0,0.1671,0.1676,0.1657,0.1656,0.1647,0.1641,0.1571,0.1542,0.1552,0.1559,0.1628,0.1699,0.1773,0.1805,0.1886,0.1879,0.1912,0.1951,0.1953,0.1927,0.1945,0.1923,0.1894,0.1796,0.1969,0.1969,0.1969,0,0.1635,0.1688,0.1655,0.1673,0.1637,0.1617,0.1583,0.1544,0.1502,0.1555,0.1562,0.1652,0.1711,0.176,0.1858,0.1866,0.1928,0.1949,0.194,0.1938,0.1924,0.1919,0.1805,0.1972,0.1972,0.1972,0.1972,0,0.1618,0.1658,0.1669,0.1663,0.1644,0.1614,0.1573,0.1538,0.1494,0.1479,0.1559,0.1594,0.1702,0.1769,0.183,0.1884,0.1902,0.1924,0.1933,0.1912,0.1907,0.183,0.1743,0.1972,0.1972,0.1972,0.1972,0,0.1614,0.1605,0.162,0.1609,0.1624,0.1611,0.1567,0.1536,0.1485,0.1473,0.1483,0.1548,0.1634,0.1723,0.1819,0.185,0.1829,0.1912,0.1873,0.1875,0.1759,0.1671,0.153,0.15,0.1888,0.1887,0.1886,0,0.1604,0.1597,0.1595,0.1609,0.1639,0.1639,0.1606,0.1531,0.1487,0.1462,0.1449,0.1537,0.16,0.1707,0.1792,0.1852,0.1781,0.1832,0.184,0.1728,0.1637,0.1577,0.1559,0.1814,0.1813,0.1812,0.1811,0,0.1606,0.1593,0.1584,0.1612,0.1628,0.1618,0.1592,0.1532,0.1433,0.1415,0.1418,0.1477,0.1598,0.166,0.1723,0.1778,0.17,0.1809,0.1712,0.1567,0.1475,0.146,0.1828,0.1801,0.1802,0.1803,0.1803,0.1804,0.1628,0.1618,0.1576,0.1637,0.1637,0.1598,0.1554,0.1512,0.1418,0.1332,0.1398,0.1436,0.1513,0.162,0.165,0.1642,0.1627,0.1603,0.1507,0.1462,0.1407,0.1734,0.1704,0.1704,0.1705,0.1705,0.1705,0,0.1607,0.1595,0.1624,0.1617,0.1613,0.1611,0.1524,0.1445,0.1361,0.1323,0.1308,0.135,0.1387,0.1443,0.1467,0.1364,0.137,0.128,0.1193,0.1197,0.1516,0.1489,0.1387,0.1387,0.1387,0.1387,0.1388,0.1388,0.157,0.1561,0.1579,0.1591,0.1598,0.1507,0.144,0.1349,0.1272,0.1192,0.1167,0.1187,0.1241,0.1177,0.1092,0.1071,0.0931,0.0858,0.0826,0.1034,0.1058,0.1081,0.1039,0.0844,0.0843,0.0571,0.0567,0.0565]},{"header":{"parameterUnit":"m.s-1","parameterCategory":2,"la1":30.2991,"la2":30.254,"lo1":-89.0895,"lo2":-89.0444,"dy":0.0017,"dx":0.0017,"nx":28,"ny":28,"refTime":"2023-08-19T09:00:00:Z","depth":"0","parameterNumber":3,"parameterNumberName":"V-component_of_CURRENTS"},"data":[0,0,0,0,0,0,0,0,0,0,0,0,0,0,0,0,0,0,0,0,0,0,0,0,0,0,0,0,0,0,0,0,0,0,0,0,0,0,0,0,0,0,0,0,0,0,0,0,0,0,0,0,0,0,0,0,0,0,-0.0284,-0.0283,0,-0.0208,-0.0207,-0.0206,-0.0191,-0.0191,-0.0192,-0.0193,-0.0025,-0.002,-0.0015,0,0,0,0,0,0,0,0,0,0,0,0,0,-0.0351,-0.035,-0.0284,-0.0283,-0.0282,-0.0208,-0.0207,-0.0206,-0.019,-0.0191,-0.0192,-0.0193,-0.0026,-0.002,-0.0014,0,0,0,0,0,0,0,0,0,0,0,0,0,-0.0302,-0.035,-0.0284,-0.0266,-0.0264,-0.0209,-0.0207,-0.0206,-0.019,-0.0191,-0.0192,-0.0193,-0.0028,-0.0021,-0.0013,0.0054,0,0,0.001,0.0013,0,0,0,0,0,0,0,0,-0.0305,-0.03,-0.027,-0.0268,-0.0265,-0.0211,-0.0169,-0.0115,-0.019,-0.0217,-0.0193,-0.0194,-0.0078,-0.0067,-0.005,0.0062,0.0069,0.0011,0.0015,0.0019,0.0021,0,0,0,0,0,0,0,-0.0309,-0.0302,-0.0253,-0.0269,-0.0266,-0.024,-0.0235,-0.0159,-0.014,-0.0215,-0.0214,-0.0207,-0.0076,-0.0057,-0.0045,0.0072,0.0011,0.0017,0.0022,0.0025,0.0231,0.0232,0,0,0,0,0,0,-0.0322,-0.0306,-0.0255,-0.0251,-0.0289,-0.0239,-0.0233,-0.0226,-0.0143,-0.0133,-0.0206,-0.0206,-0.007,-0.0054,-0.0039,0.0029,0.0019,0.0026,0.003,0.023,0.0231,0.0232,0,0,0,0,0,0,-0.0324,-0.0318,-0.0258,-0.0277,-0.0268,-0.0237,-0.023,-0.0224,-0.0205,-0.0138,-0.0125,-0.0192,-0.007,-0.005,0.0023,0.0037,0.0029,0.0036,0.0229,0.023,0.0232,0.0178,0,0,0,0,0,0,-0.0326,-0.0319,-0.032,-0.0278,-0.0268,-0.0221,-0.0229,-0.0222,-0.0199,-0.0199,-0.0121,-0.0107,-0.0069,0.0011,0.0031,0.0047,0.0042,0.0228,0.023,0.0231,0.0179,0.0177,0.0176,0,0,0,0,0,-0.0329,-0.032,-0.032,-0.0314,-0.0269,-0.022,-0.0212,-0.0192,-0.0198,-0.018,-0.0138,-0.011,0.0035,0.0019,0.0041,0.006,0.0227,0.0229,0.0231,0.0179,0.0178,0.0176,0,0,0,0,0,0,-0.0344,-0.0317,-0.0316,-0.03,-0.0263,-0.0218,-0.0206,-0.0188,-0.0142,-0.0147,-0.0088,-0.007,-0.0005,0.0042,0.0022,0.0124,0.0133,0.014,0.0086,0.0086,0.0085,0.0078,0.0049,0,0,0,0,0,-0.035,-0.0339,-0.0304,-0.0288,-0.0278,-0.0242,-0.0222,-0.0206,-0.0161,-0.0144,-0.0091,-0.0034,0.0024,0.0063,0.0121,0.0191,0.0202,0.0216,0.0214,0.0213,0.0223,0.024,0.024,0.0239,0.0238,0.0238,0,0,-0.0351,-0.0335,-0.0329,-0.0291,-0.027,-0.0245,-0.0232,-0.0203,-0.0179,-0.0128,-0.0079,-0.0031,0.0041,0.0101,0.0136,0.0142,0.0215,0.0215,0.0213,0.0225,0.0241,0.0241,0.0241,0.024,0.024,0.0239,0,0,-0.0334,-0.0337,-0.0318,-0.0297,-0.0265,-0.0246,-0.0237,-0.0191,-0.0173,-0.0115,-0.0084,-0.0031,0.0069,0.0112,0.0149,0.0186,0.0204,0.0206,0.0203,0.0218,0.0218,0.0217,0.0202,0.0201,0.0209,0.0209,0.0209,0,-0.0329,-0.0311,-0.0301,-0.0279,-0.0269,-0.0248,-0.0226,-0.0198,-0.0131,-0.011,-0.0107,0.0019,0.0072,0.0147,0.0151,0.0183,0.0183,0.0197,0.0213,0.0214,0.0214,0.0199,0.0199,0.0207,0.0207,0.0207,0.0207,0,-0.0299,-0.0288,-0.0278,-0.0253,-0.024,-0.0217,-0.0193,-0.0167,-0.0151,-0.0119,-0.0049,0.0018,0.009,0.0114,0.0147,0.0191,0.0183,0.0201,0.0207,0.0211,0.0195,0.0195,0.0203,0.0204,0.0205,0.0205,0,0,-0.0279,-0.0255,-0.0256,-0.0249,-0.023,-0.0213,-0.019,-0.0152,-0.0135,-0.0079,-0.004,0.0048,0.0072,0.0116,0.0163,0.0186,0.0177,0.0195,0.0196,0.0162,0.0184,0.0114,0.0108,0.019,0.0191,0.0191,0.0158,0,-0.0253,-0.0208,-0.0216,-0.0196,-0.0177,-0.0181,-0.016,-0.0133,-0.0107,-0.0066,-0.0008,0.0048,0.0076,0.0108,0.0133,0.018,0.0181,0.0183,0.0203,0.0203,0.0127,0.0108,0.015,0.012,0.0159,0.0159,0.0159,0,-0.0223,-0.0201,-0.0163,-0.0167,-0.0165,-0.0152,-0.0141,-0.0129,-0.0083,-0.0057,-0.0006,0.0033,0.0094,0.0105,0.0162,0.016,0.0164,0.0186,0.0185,0.0145,0.0135,0.0132,0.0119,0.0226,0.016,0.016,0.016,0,-0.0203,-0.0178,-0.0149,-0.0146,-0.0135,-0.0128,-0.0137,-0.0112,-0.0105,-0.0056,-0.003,0.0033,0.0072,0.0101,0.0133,0.0146,0.0172,0.0193,0.0129,0.0123,0.0177,0.0175,0.0261,0.0207,0.0207,0.0207,0.0207,0,-0.0176,-0.017,-0.0131,-0.0121,-0.0103,-0.012,-0.0106,-0.01,-0.0086,-0.0065,-0.0028,0.002,0.0073,0.0096,0.0118,0.0113,0.015,0.012,0.0113,0.0156,0.0152,0.0263,0.031,0.0206,0.0206,0.0206,0.0207,0,-0.018,-0.0142,-0.0121,-0.0098,-0.0085,-0.0089,-0.01,-0.0091,-0.0083,-0.0053,-0.004,0.0006,0.0032,0.0055,0.0093,0.0085,0.0129,0.0075,0.0099,0.0094,0.012,0.0161,0.0155,0.0213,-0.0,-0.0002,-0.0004,0,-0.0164,-0.0138,-0.0108,-0.0084,-0.0075,-0.007,-0.0056,-0.007,-0.0072,-0.0048,-0.0032,-0.0011,0.0026,0.0024,0.0008,-0.0012,0.0079,-0.0,0.0033,0.0118,0.016,0.015,0.0202,0.0082,0.0081,0.008,0.008,0,-0.0152,-0.0146,-0.0142,-0.0082,-0.0051,-0.004,-0.0037,-0.0036,-0.0051,-0.0027,-0.0003,0.0019,0.0006,0.0006,-0.0057,-0.0049,0.0072,-0.0019,0.0097,0.0244,0.0217,0.0271,0.0086,0.0074,0.0075,0.0075,0.0076,0.0076,-0.0151,-0.0155,-0.0126,-0.009,-0.005,-0.0022,-0.0015,-0.0015,-0.0015,-0.0008,0.0013,0.0035,0.0043,-0.0035,-0.0028,0.0019,0.0002,0.0084,0.0127,0.0107,0.0169,-0.0069,-0.0111,-0.0111,-0.0112,-0.0112,-0.0112,0,-0.0149,-0.0156,-0.0124,-0.0077,-0.0045,-0.0022,-0.0006,-0.0008,-0.0,-0.0001,0.0013,0.0031,0.0067,0.0085,0.0112,0.0182,0.0223,0.0256,0.0333,0.0381,0.0216,0.0231,0.0228,0.0228,0.0228,0.0228,0.0228,0.0228,-0.0134,-0.0139,-0.0138,-0.0076,-0.0042,-0.0005,0.0005,0.0003,-0.0011,-0.0022,-0.0029,-0.0018,0.0059,0.022,0.0383,0.0425,0.0557,0.0502,0.056,0.0545,0.0536,0.0527,0.0555,0.062,0.0621,0.0751,0.0752,0.0754]}],[{"header":{"parameterUnit":"m.s-1","parameterCategory":2,"la1":30.2991,"la2":30.254,"lo1":-89.0895,"lo2":-89.0444,"dy":0.0017,"dx":0.0017,"nx":28,"ny":28,"refTime":"2023-08-19T09:00:00:Z","depth":"2","parameterNumber":2,"parameterNumberName":"U-component_of_CURRENTS"},"data":[0,0,0,0,0,0,0,0,0,0,0,0,0,0,0,0,0,0,0,0,0,0,0,0,0,0,0,0,0,0,0,0,0,0,0,0,0,0,0,0,0,0,0,0,0,0,0,0,0,0,0,0,0,0,0,0,0,0,-0.1138,-0.1137,0,-0.106,-0.1059,-0.1058,-0.0934,-0.0932,-0.093,-0.0928,-0.0863,-0.0863,-0.0864,0,0,0,0,0,0,0,0,0,0,0,0,0,-0.1179,-0.1179,-0.1138,-0.1137,-0.1136,-0.106,-0.1059,-0.1058,-0.0935,-0.0932,-0.0929,-0.0926,-0.0863,-0.0863,-0.0864,0,0,0,0,0,0,0,0,0,0,0,0,0,-0.1138,-0.1179,-0.1138,-0.1065,-0.1058,-0.106,-0.1059,-0.1057,-0.0935,-0.0932,-0.0928,-0.0925,-0.0863,-0.0863,-0.0864,-0.0936,0,0,-0.0866,-0.0866,0,0,0,0,0,0,0,0,-0.114,-0.1137,-0.1077,-0.107,-0.1062,-0.1003,-0.1049,-0.1017,-0.0936,-0.0982,-0.0927,-0.0924,-0.0913,-0.0909,-0.0903,-0.0933,-0.093,-0.0866,-0.0866,-0.0866,-0.0866,0,0,0,0,0,0,0,-0.1143,-0.1139,-0.1107,-0.1076,-0.1067,-0.1035,-0.1026,-0.1043,-0.0969,-0.0978,-0.0969,-0.096,-0.0909,-0.0902,-0.09,-0.0929,-0.0866,-0.0866,-0.0867,-0.0867,-0.0867,-0.0867,0,0,0,0,0,0,-0.1156,-0.1142,-0.111,-0.1105,-0.1093,-0.1037,-0.1027,-0.1026,-0.0968,-0.0955,-0.0963,-0.0955,-0.0903,-0.09,-0.0898,-0.0848,-0.0866,-0.0867,-0.0867,-0.0867,-0.0867,-0.0867,0,0,0,0,0,0,-0.1158,-0.1155,-0.1113,-0.1121,-0.1113,-0.104,-0.104,-0.1026,-0.0975,-0.0956,-0.0943,-0.0921,-0.09,-0.0897,-0.0857,-0.0849,-0.0867,-0.0868,-0.0868,-0.0867,-0.0867,-0.0834,0,0,0,0,0,0,-0.1159,-0.1156,-0.115,-0.1122,-0.1113,-0.1088,-0.1043,-0.1027,-0.0977,-0.0964,-0.0918,-0.091,-0.0897,-0.0856,-0.0857,-0.0851,-0.0868,-0.0868,-0.0868,-0.0867,-0.0836,-0.0832,-0.083,0,0,0,0,0,-0.1161,-0.1156,-0.115,-0.1145,-0.1111,-0.1088,-0.108,-0.1017,-0.0978,-0.0958,-0.0909,-0.0909,-0.0853,-0.0856,-0.0858,-0.0851,-0.0869,-0.0868,-0.0867,-0.0837,-0.0833,-0.083,0,0,0,0,0,0,-0.1172,-0.1143,-0.1135,-0.1123,-0.1101,-0.1066,-0.1031,-0.1007,-0.0956,-0.0923,-0.0904,-0.0894,-0.0854,-0.0865,-0.0868,-0.085,-0.0863,-0.0863,-0.084,-0.0836,-0.0833,-0.085,-0.0869,0,0,0,0,0,-0.1179,-0.1163,-0.1142,-0.1133,-0.1111,-0.1074,-0.1051,-0.1014,-0.0972,-0.0942,-0.0914,-0.0884,-0.0867,-0.0855,-0.0839,-0.0842,-0.0858,-0.084,-0.0837,-0.0835,-0.085,-0.0871,-0.0872,-0.0864,-0.0864,-0.0864,0,0,-0.1186,-0.1165,-0.1158,-0.1133,-0.1099,-0.108,-0.1048,-0.0999,-0.098,-0.0951,-0.0896,-0.0868,-0.0861,-0.0837,-0.0825,-0.0838,-0.0838,-0.0834,-0.0831,-0.0848,-0.0871,-0.0872,-0.0873,-0.0864,-0.0864,-0.0864,0,0,-0.1163,-0.1163,-0.1122,-0.112,-0.107,-0.1056,-0.1039,-0.0991,-0.0953,-0.092,-0.0883,-0.0856,-0.0829,-0.0826,-0.0824,-0.0811,-0.0814,-0.0792,-0.0801,-0.0821,-0.0822,-0.0824,-0.0815,-0.0816,-0.0801,-0.0801,-0.0801,0,-0.1163,-0.1132,-0.1111,-0.1084,-0.1061,-0.1045,-0.1001,-0.0998,-0.0945,-0.0922,-0.089,-0.085,-0.0837,-0.0835,-0.0809,-0.0808,-0.0799,-0.0811,-0.0818,-0.082,-0.0822,-0.0813,-0.0815,-0.0799,-0.0799,-0.0799,-0.08,0,-0.1113,-0.1103,-0.108,-0.1045,-0.1015,-0.0992,-0.0974,-0.0906,-0.0863,-0.0905,-0.0866,-0.0851,-0.0827,-0.0823,-0.0805,-0.0811,-0.079,-0.0803,-0.0828,-0.0821,-0.0811,-0.0814,-0.0797,-0.0797,-0.0798,-0.0798,0,0,-0.1073,-0.1048,-0.1039,-0.1033,-0.0993,-0.0976,-0.0886,-0.0852,-0.0817,-0.083,-0.0817,-0.0805,-0.0827,-0.0825,-0.0812,-0.0837,-0.0825,-0.0813,-0.0815,-0.0805,-0.0832,-0.0677,-0.0664,-0.0823,-0.0824,-0.0825,-0.0809,0,-0.1032,-0.0987,-0.0964,-0.0944,-0.092,-0.0859,-0.0762,-0.0738,-0.0752,-0.0763,-0.0816,-0.0838,-0.0835,-0.0796,-0.0827,-0.0823,-0.0833,-0.0827,-0.084,-0.0841,-0.0705,-0.0663,-0.0708,-0.0685,-0.0811,-0.0811,-0.0812,0,-0.09,-0.0956,-0.0881,-0.085,-0.0816,-0.0791,-0.0644,-0.0587,-0.0609,-0.0579,-0.0655,-0.0773,-0.082,-0.0817,-0.0847,-0.0829,-0.0821,-0.0836,-0.0836,-0.0711,-0.069,-0.0719,-0.0685,-0.0816,-0.0815,-0.0815,-0.0815,0,-0.0768,-0.0832,-0.0775,-0.0795,-0.0771,-0.0672,-0.0611,-0.0542,-0.0476,-0.054,-0.0564,-0.0674,-0.0697,-0.0747,-0.0781,-0.0807,-0.081,-0.0861,-0.0726,-0.0715,-0.0769,-0.0759,-0.0885,-0.0885,-0.0885,-0.0885,-0.0885,0,-0.0638,-0.0659,-0.0754,-0.0747,-0.0721,-0.0646,-0.0542,-0.0439,-0.0364,-0.0372,-0.0524,-0.0559,-0.0677,-0.0746,-0.0772,-0.0717,-0.0793,-0.0713,-0.0698,-0.075,-0.074,-0.0879,-0.0878,-0.0885,-0.0885,-0.0885,-0.0885,0,-0.0491,-0.0512,-0.0543,-0.0597,-0.0622,-0.0595,-0.0511,-0.0436,-0.0335,-0.034,-0.0361,-0.0461,-0.0491,-0.0599,-0.0642,-0.0656,-0.0654,-0.0611,-0.0634,-0.0619,-0.0564,-0.0563,-0.0509,-0.0503,-0.0498,-0.0494,-0.0491,0,-0.0425,-0.0372,-0.0466,-0.0511,-0.0577,-0.0578,-0.0487,-0.0373,-0.0293,-0.0292,-0.0271,-0.0368,-0.0425,-0.0417,-0.0421,-0.0411,-0.0472,-0.043,-0.0496,-0.0534,-0.0525,-0.0531,-0.0536,-0.0569,-0.0567,-0.0565,-0.0563,0,-0.0365,-0.0314,-0.0369,-0.0444,-0.0464,-0.0508,-0.0421,-0.0339,-0.0182,-0.0193,-0.0172,-0.0271,-0.0288,-0.0328,-0.0268,-0.0269,-0.044,-0.038,-0.0446,-0.0612,-0.0577,-0.0572,-0.0579,-0.0545,-0.0547,-0.0548,-0.0549,-0.055,-0.0327,-0.036,-0.0306,-0.0414,-0.0435,-0.0398,-0.0344,-0.024,-0.0114,-0.0074,-0.014,-0.0253,-0.0362,-0.029,-0.025,-0.0175,-0.0211,-0.03,-0.0315,-0.0329,-0.0293,-0.0247,-0.0147,-0.0146,-0.0146,-0.0146,-0.0145,0,-0.033,-0.0295,-0.0306,-0.0381,-0.0372,-0.0369,-0.0257,-0.0181,-0.0056,-0.0072,-0.0097,-0.0264,-0.0303,-0.0318,-0.021,-0.0175,-0.0235,-0.0155,-0.0333,-0.0349,-0.0364,-0.0338,-0.02,-0.0199,-0.0199,-0.0199,0,0,-0.0322,-0.0307,-0.031,-0.0314,-0.0317,-0.0221,-0.0135,-0.0069,-0.0023,-0.0069,-0.0135,-0.0307,-0.0357,-0.0344,-0.0321,-0.0245,-0.0275,-0.0194,-0.0161,-0.0388,-0.0403,-0.0461,-0.0437,0,0,0,0,0]},{"header":{"parameterUnit":"m.s-1","parameterCategory":2,"la1":30.2991,"la2":30.254,"lo1":-89.0895,"lo2":-89.0444,"dy":0.0017,"dx":0.0017,"nx":28,"ny":28,"refTime":"2023-08-19T09:00:00:Z","depth":"2","parameterNumber":3,"parameterNumberName":"V-component_of_CURRENTS"},"data":[0,0,0,0,0,0,0,0,0,0,0,0,0,0,0,0,0,0,0,0,0,0,0,0,0,0,0,0,0,0,0,0,0,0,0,0,0,0,0,0,0,0,0,0,0,0,0,0,0,0,0,0,0,0,0,0,0,0,-0.0288,-0.0288,0,-0.0274,-0.0273,-0.0273,-0.0307,-0.0308,-0.031,-0.0311,-0.0236,-0.0232,-0.0229,0,0,0,0,0,0,0,0,0,0,0,0,0,-0.0285,-0.0285,-0.0288,-0.0288,-0.0288,-0.0274,-0.0273,-0.0273,-0.0306,-0.0308,-0.031,-0.0312,-0.0237,-0.0233,-0.0229,0,0,0,0,0,0,0,0,0,0,0,0,0,-0.0276,-0.0285,-0.0288,-0.0307,-0.0309,-0.0274,-0.0273,-0.0272,-0.0306,-0.0308,-0.031,-0.0313,-0.0238,-0.0233,-0.0228,-0.0151,0,0,-0.0213,-0.021,0,0,0,0,0,0,0,0,-0.0276,-0.0275,-0.0304,-0.0306,-0.0308,-0.0299,-0.0245,-0.0231,-0.0305,-0.0302,-0.0311,-0.0314,-0.0252,-0.0246,-0.0233,-0.0148,-0.0144,-0.0212,-0.0209,-0.0207,-0.0205,0,0,0,0,0,0,0,-0.0277,-0.0276,-0.0277,-0.0304,-0.0306,-0.0297,-0.0298,-0.0242,-0.026,-0.0302,-0.0306,-0.0311,-0.0253,-0.0238,-0.0231,-0.0143,-0.0212,-0.0208,-0.0205,-0.0203,-0.0128,-0.0129,0,0,0,0,0,0,-0.0289,-0.0276,-0.0278,-0.0277,-0.0303,-0.0296,-0.0297,-0.0295,-0.0262,-0.0261,-0.0309,-0.0313,-0.0245,-0.0237,-0.0229,-0.0211,-0.0207,-0.0202,-0.0199,-0.0127,-0.0128,-0.0129,0,0,0,0,0,0,-0.0289,-0.0289,-0.0278,-0.0281,-0.028,-0.0294,-0.0292,-0.0294,-0.0309,-0.0269,-0.0266,-0.0327,-0.0247,-0.0236,-0.0226,-0.0206,-0.02,-0.0195,-0.0125,-0.0127,-0.0129,-0.0128,0,0,0,0,0,0,-0.0288,-0.0288,-0.0294,-0.0282,-0.028,-0.0266,-0.029,-0.0292,-0.0309,-0.0315,-0.0281,-0.0276,-0.0248,-0.0234,-0.0221,-0.0199,-0.0191,-0.0124,-0.0126,-0.0128,-0.0127,-0.0129,-0.0132,0,0,0,0,0,-0.0288,-0.0271,-0.0294,-0.0295,-0.0287,-0.0266,-0.0263,-0.0278,-0.0308,-0.0302,-0.0311,-0.0278,-0.0238,-0.0231,-0.0215,-0.0191,-0.0123,-0.0125,-0.0128,-0.0126,-0.0129,-0.0132,0,0,0,0,0,0,-0.0272,-0.0273,-0.0298,-0.0285,-0.0288,-0.0274,-0.0273,-0.0288,-0.0288,-0.0308,-0.0281,-0.0274,-0.0259,-0.0236,-0.0229,-0.0184,-0.0178,-0.0177,-0.0181,-0.0184,-0.0187,-0.0165,-0.0187,0,0,0,0,0,-0.0274,-0.0266,-0.0271,-0.0266,-0.0272,-0.0281,-0.028,-0.0293,-0.0291,-0.0296,-0.0276,-0.0266,-0.0247,-0.023,-0.0205,-0.0166,-0.014,-0.0149,-0.0151,-0.0153,-0.013,-0.0098,-0.0094,-0.0137,-0.0137,-0.0137,0,0,-0.0271,-0.0269,-0.027,-0.0264,-0.0272,-0.0265,-0.0285,-0.0289,-0.0279,-0.0282,-0.0266,-0.0268,-0.0245,-0.0217,-0.0206,-0.0197,-0.0133,-0.0156,-0.0157,-0.0133,-0.01,-0.0095,-0.0091,-0.0139,-0.0138,-0.0138,0,0,-0.0246,-0.0262,-0.025,-0.0246,-0.026,-0.0264,-0.0274,-0.0274,-0.0273,-0.0261,-0.0274,-0.0277,-0.0231,-0.0213,-0.0199,-0.0198,-0.0153,-0.0198,-0.0173,-0.0143,-0.0138,-0.0133,-0.0108,-0.0101,-0.0191,-0.0191,-0.0191,0,-0.0254,-0.023,-0.0242,-0.0227,-0.0234,-0.0269,-0.0265,-0.025,-0.0247,-0.0244,-0.0261,-0.0237,-0.0222,-0.0188,-0.0198,-0.0195,-0.0178,-0.0158,-0.0142,-0.0137,-0.0132,-0.0107,-0.0099,-0.0192,-0.0191,-0.0191,-0.0191,0,-0.0207,-0.0204,-0.0195,-0.0197,-0.0205,-0.02,-0.0206,-0.0214,-0.0235,-0.0221,-0.0208,-0.0198,-0.0188,-0.0185,-0.0183,-0.0146,-0.0146,-0.0153,-0.0125,-0.0127,-0.0102,-0.0094,-0.0192,-0.0192,-0.0192,-0.0192,0,0,-0.022,-0.0169,-0.018,-0.018,-0.0192,-0.0197,-0.0194,-0.0192,-0.02,-0.018,-0.0165,-0.0143,-0.0154,-0.014,-0.0142,-0.0108,-0.007,-0.0113,-0.0111,-0.007,-0.0004,0.0003,0.0012,-0.0073,-0.0072,-0.007,-0.0005,0,-0.02,-0.0146,-0.0142,-0.0141,-0.0132,-0.0167,-0.0166,-0.0174,-0.0176,-0.0161,-0.0138,-0.012,-0.0127,-0.0135,-0.0102,-0.0084,-0.0046,-0.0087,-0.0022,-0.002,0.0001,0.0023,0.0106,0.0173,0.0004,0.0005,0.0006,0,-0.0201,-0.0149,-0.0121,-0.0122,-0.0131,-0.0139,-0.0185,-0.0177,-0.0161,-0.0168,-0.0146,-0.0119,-0.0073,-0.0083,-0.0014,-0.0043,-0.0016,0.0007,0.0009,0.003,0.0003,0.0148,0.0195,0.002,0.0019,0.0018,0.0017,0,-0.0234,-0.0179,-0.0153,-0.0145,-0.0129,-0.0151,-0.0166,-0.0183,-0.0184,-0.016,-0.016,-0.0103,-0.0084,-0.0028,0.0008,0.0003,0.0084,0.0079,0.0118,0.0117,0.0212,0.0217,0.0147,0.0147,0.0147,0.0147,0.0146,0,-0.024,-0.0225,-0.0158,-0.0146,-0.0145,-0.0155,-0.0181,-0.02,-0.02,-0.0194,-0.0157,-0.013,-0.0068,-0.0014,0.0026,0.0093,0.0095,0.0144,0.0145,0.0209,0.0213,0.0099,0.0092,0.0149,0.0148,0.0148,0.0148,0,-0.0292,-0.0235,-0.0208,-0.0169,-0.0166,-0.0175,-0.0192,-0.0203,-0.0213,-0.0203,-0.019,-0.0139,-0.008,-0.0022,0.0059,0.0106,0.0172,0.0191,0.0256,0.0264,0.0187,0.0179,0.0274,0.0275,0.0276,0.0276,0.0277,0,-0.0299,-0.0283,-0.0245,-0.0224,-0.0201,-0.0199,-0.0216,-0.0227,-0.0233,-0.0203,-0.0194,-0.0124,-0.0047,0.0067,0.0191,0.0291,0.0181,0.0347,0.0362,0.0213,0.0205,0.0196,0.0187,0.0483,0.0486,0.0487,0.0489,0,-0.0316,-0.032,-0.0292,-0.0245,-0.0239,-0.0229,-0.0235,-0.0235,-0.0245,-0.0219,-0.0155,-0.0065,0.0093,0.0257,0.0352,0.041,0.0342,0.0387,0.024,0.0421,0.0412,0.0402,0.0387,0.0505,0.0504,0.0502,0.0502,0.0501,-0.0343,-0.0334,-0.031,-0.0266,-0.0253,-0.0243,-0.0236,-0.0228,-0.0211,-0.0154,-0.0087,0.0039,0.0139,0.0366,0.0442,0.0522,0.0537,0.0505,0.05,0.0493,0.0488,0.0479,0.0585,0.0584,0.0583,0.0582,0.0581,0,-0.0352,-0.034,-0.0317,-0.0263,-0.0254,-0.0252,-0.024,-0.0224,-0.0178,-0.0116,-0.0014,0.0108,0.0309,0.0363,0.061,0.0708,0.0722,0.0605,0.0612,0.0601,0.0589,0.0587,0.071,0.071,0.0709,0.0708,0,0,-0.0342,-0.0333,-0.0317,-0.0271,-0.0248,-0.0238,-0.0229,-0.0193,-0.0146,-0.006,0.0022,0.0163,0.0302,0.0393,0.0532,0.064,0.0571,0.0631,0.0547,0.0536,0.0521,0.0582,0.0573,0,0,0,0,0]}],[{"header":{"parameterUnit":"m.s-1","parameterCategory":2,"la1":30.2991,"la2":30.254,"lo1":-89.0895,"lo2":-89.0444,"dy":0.0017,"dx":0.0017,"nx":28,"ny":28,"refTime":"2023-08-19T09:00:00:Z","depth":"4","parameterNumber":2,"parameterNumberName":"U-component_of_CURRENTS"},"data":[0,0,0,0,0,0,0,0,0,0,0,0,0,0,0,0,0,0,0,0,0,0,0,0,0,0,0,0,0,0,0,0,0,0,0,0,0,0,0,0,0,0,0,0,0,0,0,0,0,0,0,0,0,0,0,0,0,0,-0.0757,-0.0757,0,-0.0779,-0.0779,-0.078,-0.0815,-0.0816,-0.0816,-0.0817,-0.0922,-0.0924,-0.0927,0,0,0,0,0,0,0,0,0,0,0,0,0,-0.0718,-0.0718,-0.0757,-0.0757,-0.0757,-0.0779,-0.0779,-0.078,-0.0815,-0.0816,-0.0816,-0.0817,-0.0921,-0.0924,-0.0927,0,0,0,0,0,0,0,0,0,0,0,0,0,-0.0739,-0.0719,-0.0757,-0.0775,-0.0777,-0.0779,-0.0779,-0.078,-0.0815,-0.0816,-0.0816,-0.0817,-0.092,-0.0924,-0.0927,-0.0938,0,0,-0.0939,-0.094,0,0,0,0,0,0,0,0,-0.0738,-0.0741,-0.0772,-0.0774,-0.0776,-0.0793,-0.0804,-0.0836,-0.0815,-0.0803,-0.0817,-0.0817,-0.0884,-0.0891,-0.0896,-0.0943,-0.0948,-0.0939,-0.0941,-0.0943,-0.0944,0,0,0,0,0,0,0,-0.0737,-0.074,-0.0768,-0.0772,-0.0774,-0.0772,-0.0777,-0.081,-0.0844,-0.0805,-0.0806,-0.0804,-0.0886,-0.0893,-0.0899,-0.0949,-0.0939,-0.0942,-0.0944,-0.0946,-0.1102,-0.1104,0,0,0,0,0,0,-0.0729,-0.0739,-0.0767,-0.0769,-0.0755,-0.0773,-0.0778,-0.0789,-0.0842,-0.0849,-0.0804,-0.0806,-0.0886,-0.0895,-0.0903,-0.1031,-0.0943,-0.0946,-0.0948,-0.11,-0.1103,-0.1105,0,0,0,0,0,0,-0.0729,-0.0732,-0.0767,-0.0751,-0.0755,-0.0773,-0.0785,-0.0789,-0.0817,-0.084,-0.0849,-0.083,-0.0887,-0.0898,-0.0954,-0.1031,-0.0948,-0.0951,-0.1098,-0.1101,-0.1104,-0.1214,0,0,0,0,0,0,-0.0728,-0.0732,-0.0753,-0.0751,-0.0756,-0.0799,-0.0784,-0.0789,-0.0812,-0.0816,-0.0866,-0.0874,-0.0888,-0.0948,-0.0958,-0.1034,-0.0954,-0.1096,-0.1099,-0.1103,-0.1208,-0.1221,-0.1231,0,0,0,0,0,-0.0726,-0.0746,-0.0755,-0.0759,-0.078,-0.0801,-0.0805,-0.0819,-0.0813,-0.0844,-0.0865,-0.0874,-0.0979,-0.0952,-0.0963,-0.1043,-0.1094,-0.1098,-0.1103,-0.1203,-0.1218,-0.1231,0,0,0,0,0,0,-0.073,-0.0751,-0.0761,-0.0785,-0.0807,-0.0806,-0.0828,-0.0831,-0.0868,-0.0872,-0.0891,-0.0903,-0.0988,-0.0986,-0.0956,-0.1095,-0.1042,-0.1048,-0.1114,-0.1129,-0.114,-0.1148,-0.0957,0,0,0,0,0,-0.0742,-0.0776,-0.0785,-0.081,-0.082,-0.0827,-0.084,-0.0848,-0.0868,-0.0885,-0.092,-0.0956,-0.101,-0.1043,-0.1083,-0.115,-0.1128,-0.1208,-0.122,-0.123,-0.1242,-0.1287,-0.1304,-0.1119,-0.1119,-0.1119,0,0,-0.075,-0.0766,-0.0785,-0.0816,-0.0829,-0.0849,-0.0839,-0.0863,-0.0893,-0.0891,-0.0959,-0.1001,-0.1034,-0.112,-0.1158,-0.1132,-0.126,-0.1235,-0.1244,-0.1251,-0.1294,-0.1312,-0.1328,-0.1122,-0.1122,-0.1121,0,0,-0.0769,-0.0798,-0.0827,-0.0848,-0.0873,-0.0879,-0.0891,-0.0913,-0.0945,-0.0996,-0.102,-0.109,-0.1158,-0.121,-0.1238,-0.1329,-0.132,-0.1364,-0.1439,-0.1483,-0.1499,-0.1513,-0.146,-0.1469,-0.1372,-0.1372,-0.1372,0,-0.0778,-0.0809,-0.0839,-0.0863,-0.088,-0.0894,-0.0917,-0.095,-0.0994,-0.1031,-0.103,-0.1165,-0.1195,-0.1312,-0.1362,-0.1359,-0.136,-0.1387,-0.15,-0.1513,-0.1526,-0.1469,-0.1477,-0.1378,-0.1378,-0.1377,-0.1376,0,-0.0806,-0.0838,-0.0854,-0.0895,-0.0926,-0.0948,-0.0984,-0.1039,-0.107,-0.1096,-0.1219,-0.1273,-0.135,-0.1397,-0.1415,-0.1547,-0.1507,-0.1509,-0.1466,-0.1551,-0.1485,-0.1491,-0.1387,-0.1384,-0.1383,-0.1381,0,0,-0.08,-0.0863,-0.0872,-0.0889,-0.0942,-0.0959,-0.1037,-0.1102,-0.1131,-0.123,-0.1309,-0.1435,-0.1474,-0.151,-0.1566,-0.1634,-0.1709,-0.1636,-0.1635,-0.1584,-0.1763,-0.1547,-0.1532,-0.1761,-0.1764,-0.1767,-0.1663,0,-0.0811,-0.0857,-0.0896,-0.0938,-0.0952,-0.1012,-0.1074,-0.1143,-0.1187,-0.127,-0.1387,-0.1495,-0.1513,-0.1597,-0.1658,-0.1719,-0.1741,-0.1732,-0.1687,-0.1683,-0.1485,-0.1538,-0.1776,-0.1667,-0.1669,-0.167,-0.167,0,-0.0823,-0.0845,-0.0897,-0.0948,-0.0963,-0.1001,-0.1086,-0.1149,-0.1271,-0.1321,-0.1444,-0.1535,-0.1698,-0.1697,-0.1792,-0.1802,-0.1788,-0.1807,-0.1803,-0.1574,-0.1482,-0.1576,-0.1681,-0.168,-0.1679,-0.1678,-0.1678,0,-0.0794,-0.0846,-0.0888,-0.0906,-0.0971,-0.1023,-0.108,-0.1171,-0.1226,-0.1398,-0.1459,-0.1612,-0.1711,-0.1782,-0.1798,-0.1841,-0.184,-0.1876,-0.1641,-0.1621,-0.1797,-0.1784,-0.1911,-0.1911,-0.1911,-0.1911,-0.1912,0,-0.0783,-0.0811,-0.0875,-0.0889,-0.0918,-0.1004,-0.1069,-0.113,-0.1254,-0.1264,-0.1501,-0.1512,-0.1757,-0.1781,-0.1799,-0.169,-0.1811,-0.1649,-0.16,-0.1835,-0.1828,-0.1797,-0.1785,-0.1907,-0.1908,-0.1909,-0.191,0,-0.0753,-0.0806,-0.0823,-0.0885,-0.0904,-0.0937,-0.1052,-0.1089,-0.1227,-0.1259,-0.1358,-0.1492,-0.1496,-0.1619,-0.1672,-0.1635,-0.1604,-0.1516,-0.1681,-0.1643,-0.1356,-0.1352,-0.1297,-0.1289,-0.1282,-0.1277,-0.1272,0,-0.0737,-0.0754,-0.0796,-0.0791,-0.0819,-0.0893,-0.0936,-0.1067,-0.1073,-0.1142,-0.1122,-0.1222,-0.127,-0.1189,-0.1298,-0.1311,-0.13,-0.1307,-0.1436,-0.1345,-0.1304,-0.131,-0.1314,-0.1261,-0.1259,-0.1258,-0.1256,0,-0.0679,-0.0717,-0.0735,-0.0722,-0.0742,-0.0764,-0.0809,-0.0817,-0.0907,-0.1023,-0.0918,-0.0974,-0.092,-0.0995,-0.1018,-0.1014,-0.136,-0.1238,-0.1255,-0.1376,-0.1301,-0.1268,-0.128,-0.1232,-0.1236,-0.1238,-0.1239,0,-0.0638,-0.0623,-0.0654,-0.0641,-0.0635,-0.0598,-0.0667,-0.0659,-0.0704,-0.077,-0.065,-0.0722,-0.0787,-0.0815,-0.0782,-0.0829,-0.0865,-0.0944,-0.0978,-0.1005,-0.0969,-0.0834,-0.0576,0,0,0,0,0,-0.0578,-0.0581,-0.0562,-0.0518,-0.0506,-0.0508,-0.0541,-0.0617,-0.0664,-0.0553,-0.0622,-0.055,-0.056,-0.0589,-0.0588,-0.0658,-0.088,-0.0657,-0.099,-0.1102,-0.1129,-0.1121,0,0,0,0,0,0,-0.0544,-0.0552,-0.0543,-0.0423,-0.0374,-0.0348,-0.0377,-0.042,-0.0387,-0.0438,-0.0455,-0.0503,-0.0539,-0.0532,-0.0561,-0.0576,-0.0779,-0.0693,-0.0692,-0.1086,-0.1111,-0.1133,-0.1134,0,0,0,0,0]},{"header":{"parameterUnit":"m.s-1","parameterCategory":2,"la1":30.2991,"la2":30.254,"lo1":-89.0895,"lo2":-89.0444,"dy":0.0017,"dx":0.0017,"nx":28,"ny":28,"refTime":"2023-08-19T09:00:00:Z","depth":"4","parameterNumber":3,"parameterNumberName":"V-component_of_CURRENTS"},"data":[0,0,0,0,0,0,0,0,0,0,0,0,0,0,0,0,0,0,0,0,0,0,0,0,0,0,0,0,0,0,0,0,0,0,0,0,0,0,0,0,0,0,0,0,0,0,0,0,0,0,0,0,0,0,0,0,0,0,0.0115,0.0115,0,0.016,0.0161,0.0161,0.0215,0.0215,0.0216,0.0217,0.0271,0.0271,0.0272,0,0,0,0,0,0,0,0,0,0,0,0,0,0.0111,0.0111,0.0115,0.0115,0.0116,0.016,0.0161,0.0161,0.0215,0.0215,0.0216,0.0217,0.027,0.0271,0.0272,0,0,0,0,0,0,0,0,0,0,0,0,0,0.013,0.011,0.0115,0.0147,0.0151,0.016,0.0161,0.0161,0.0214,0.0215,0.0217,0.0218,0.027,0.0271,0.0272,0.0255,0,0,0.0275,0.0276,0,0,0,0,0,0,0,0,0.0129,0.013,0.0142,0.0145,0.0149,0.0182,0.0179,0.0193,0.0214,0.0191,0.0217,0.0218,0.0241,0.0244,0.0251,0.0258,0.026,0.0275,0.0276,0.0276,0.0277,0,0,0,0,0,0,0,0.0128,0.0129,0.0133,0.0142,0.0147,0.0172,0.0176,0.0182,0.0209,0.0193,0.0197,0.0201,0.0243,0.025,0.0252,0.0261,0.0275,0.0276,0.0277,0.0277,0.0263,0.0262,0,0,0,0,0,0,0.0118,0.0127,0.0132,0.0135,0.0141,0.0171,0.0175,0.0171,0.0209,0.0216,0.0199,0.0203,0.0247,0.0251,0.0254,0.0237,0.0276,0.0277,0.0278,0.0264,0.0263,0.0262,0,0,0,0,0,0,0.0117,0.0117,0.013,0.0132,0.0136,0.017,0.0164,0.0171,0.0184,0.0214,0.0221,0.0207,0.0248,0.0253,0.0257,0.024,0.0278,0.0279,0.0265,0.0264,0.0262,0.0202,0,0,0,0,0,0,0.0117,0.0117,0.0111,0.0131,0.0135,0.0133,0.0163,0.0171,0.0184,0.019,0.0222,0.0228,0.025,0.0255,0.0258,0.0242,0.028,0.0266,0.0264,0.0263,0.0206,0.0199,0.0193,0,0,0,0,0,0.0116,0.0103,0.011,0.0111,0.0125,0.0132,0.0136,0.0166,0.0184,0.0183,0.0203,0.0227,0.0245,0.0255,0.0259,0.0243,0.0267,0.0265,0.0263,0.0208,0.02,0.0193,0,0,0,0,0,0,0.0091,0.0108,0.0116,0.0106,0.0117,0.0141,0.0143,0.0162,0.0177,0.018,0.0214,0.0221,0.0214,0.0235,0.0245,0.0232,0.026,0.0258,0.0217,0.021,0.0204,0.0216,0.0281,0,0,0,0,0,0.0082,0.0078,0.0096,0.0084,0.0091,0.0115,0.0123,0.0138,0.0154,0.0163,0.0186,0.0203,0.0205,0.0214,0.022,0.0215,0.0253,0.0207,0.02,0.0195,0.0206,0.0252,0.0252,0.0254,0.0254,0.0254,0,0,0.0065,0.0074,0.0071,0.0079,0.0091,0.0075,0.0123,0.0126,0.0108,0.0164,0.0153,0.0179,0.0197,0.0188,0.0188,0.0207,0.0209,0.0192,0.0187,0.0202,0.025,0.025,0.025,0.0253,0.0253,0.0253,0,0,0.0031,0.0041,0.0029,0.0028,0.004,0.0049,0.0048,0.007,0.0082,0.0073,0.0104,0.0116,0.013,0.0139,0.0143,0.0104,0.0169,0.0116,0.0102,0.0145,0.0146,0.0148,0.0177,0.0181,0.012,0.012,0.0119,0,0.0012,-0.0006,0.0025,0.0005,-0.001,0.0031,-0.0002,0.0008,0.0027,0.0026,0.0059,0.0074,0.0097,0.0081,0.0089,0.0088,0.014,0.0128,0.0139,0.0141,0.0144,0.0174,0.018,0.0116,0.0117,0.0117,0.0117,0,-0.0035,-0.0054,-0.0065,-0.0082,-0.0094,-0.0113,-0.0105,-0.0105,-0.0085,-0.0072,-0.007,-0.0027,-0.0015,-0.0001,0.0044,0.0065,0.0103,0.0121,0.0161,0.014,0.0173,0.018,0.0112,0.0113,0.0114,0.0115,0,0,-0.0072,-0.0091,-0.0099,-0.0127,-0.0145,-0.0163,-0.0196,-0.021,-0.0237,-0.0191,-0.0218,-0.0169,-0.0117,-0.0105,-0.0051,0.0019,0.0081,0.0104,0.0108,0.0138,0.0195,0.017,0.0176,0.0129,0.013,0.0131,0.0204,0,-0.012,-0.0169,-0.0176,-0.0251,-0.0279,-0.0279,-0.0319,-0.0331,-0.0323,-0.0336,-0.0273,-0.0262,-0.0169,-0.0139,-0.0069,0.0047,0.0103,0.006,0.0207,0.021,0.0196,0.0184,0.0135,0.0209,0.0211,0.0212,0.0213,0,-0.017,-0.0196,-0.0264,-0.0332,-0.0348,-0.0397,-0.0459,-0.0485,-0.049,-0.0481,-0.0449,-0.0382,-0.0291,-0.0206,-0.0025,-0.0038,0.0079,0.0176,0.018,0.019,0.0199,0.024,0.0227,0.0226,0.0225,0.0224,0.0223,0,-0.0204,-0.0269,-0.0326,-0.0352,-0.0414,-0.046,-0.0494,-0.0526,-0.0553,-0.055,-0.0556,-0.0462,-0.0403,-0.0235,-0.0033,0.0002,0.0163,0.0207,0.0276,0.0275,0.0304,0.0303,0.0323,0.0323,0.0323,0.0323,0.0322,0,-0.0254,-0.0304,-0.0347,-0.0384,-0.0471,-0.0503,-0.0593,-0.0614,-0.0651,-0.0669,-0.0614,-0.0587,-0.0383,-0.0267,-0.0079,0.0107,0.0112,0.0278,0.0296,0.0273,0.0267,0.0309,0.0306,0.0325,0.0325,0.0324,0.0324,0,-0.0285,-0.0307,-0.0382,-0.0457,-0.0487,-0.055,-0.0645,-0.0694,-0.0721,-0.0744,-0.0722,-0.0656,-0.0492,-0.0338,-0.0089,0.0034,0.0218,0.0271,0.0205,0.0217,0.0319,0.0312,0.0382,0.0381,0.0381,0.0381,0.0381,0,-0.03,-0.0333,-0.0429,-0.0478,-0.0519,-0.0608,-0.0661,-0.0717,-0.0734,-0.0753,-0.0734,-0.0644,-0.0566,-0.0292,-0.0116,0.0138,0.0192,0.0275,0.0347,0.0316,0.0327,0.0321,0.0314,0.0381,0.0381,0.0381,0.0381,0,-0.033,-0.0363,-0.0426,-0.0508,-0.0582,-0.0661,-0.0712,-0.073,-0.0751,-0.0788,-0.0705,-0.0589,-0.0469,-0.0264,-0.0122,0.0088,0.0225,0.0276,0.028,0.0349,0.0316,0.0326,0.032,0.038,0.038,0.038,0.038,0,-0.0354,-0.0399,-0.0464,-0.0539,-0.0624,-0.0664,-0.0711,-0.0701,-0.0723,-0.07,-0.0662,-0.0568,-0.0501,-0.0292,-0.0129,0.0022,0.0112,0.0225,0.0233,0.0236,0.017,0.0106,0.0124,0,0,0,0,0,-0.0372,-0.0405,-0.0479,-0.0557,-0.0635,-0.0664,-0.0713,-0.0736,-0.0735,-0.0662,-0.0658,-0.0531,-0.0333,-0.0268,-0.0112,-0.0116,0.0127,0.0075,0.0259,0.0377,0.0378,0.0324,0,0,0,0,0,0,-0.0385,-0.0448,-0.0471,-0.0538,-0.0578,-0.0647,-0.0673,-0.068,-0.0619,-0.0608,-0.0511,-0.046,-0.0283,-0.0423,-0.0102,-0.0064,0.0087,0.0155,0.016,0.0377,0.0377,0.0378,0.0323,0,0,0,0,0]}]]